User: anonymous   Login
Location: Hepcat Sky Observatory
(29.9800°N, 95.6500°W)
Time: 04:31:22
(UTC-05:00)
Language:

Cosmos 2151 Rocket - Orbit

View from above orbital plane
View from above orbital plane
View from above satellite
View from above satellite

Ground track
Ground track

The orbit data is extracted from the following two-line orbital elements,

1 21423U 91042B   17117.88482116 +.00000121 +00000-0 +12964-4 0  9993
2 21423 082.4962 008.4276 0018965 058.0278 302.2775 14.79688289374104
Epoch (UTC): 27 April 2017 21:14:08
Eccentricity: 0.0018965
inclination: 82.4962°
perigee height: 617 km
apogee height: 643 km
right ascension of ascending node: 8.4276°
argument of perigee: 58.0278°
revolutions per day: 14.79688289
mean anomaly at epoch: 302.2775°
orbit number at epoch: 37410

The dashed part of the orbit path shows where the satellite is in the earth's shadow,  

DLR